User: anonymous   Login
Location: Caltech
(34.1382°N, 118.1253°W)
Time: 19:32:37
(UTC-07:00)
Language:

Cosmos 2219 Rocket - Orbit

View from above orbital plane
View from above orbital plane
View from above satellite
View from above satellite

Ground track
Ground track

The orbit data is extracted from the following two-line orbital elements,

1 22220U 92076B   15241.91421736 +.00000100 +00000-0 +74267-4 0  9999
2 22220 071.0018 002.7242 0013604 203.4252 295.8791 14.16373580177370
Epoch (UTC): 29 August 2015 21:56:28
Eccentricity: 0.0013604
inclination: 71.0018°
perigee height: 828 km
apogee height: 847 km
right ascension of ascending node: 2.7242°
argument of perigee: 203.4252°
revolutions per day: 14.16373580
mean anomaly at epoch: 295.8791°
orbit number at epoch: 17737

The dashed part of the orbit path shows where the satellite is in the earth's shadow,  

DLR